DW3979 Weather Reports


Display with metric or nautical units.
time (UTC)temp
F
wind
direction
speed
MPH
gust
MPH
rain 1hr
in
rain 24hr
in
rain mn
in
humidity
%
barometer
mb
20260504023854 73 239 1.0 5.0 0.00 0.00 0.00 19 1012.9
20260504023354 73 184 2.0 5.0 0.00 0.00 0.00 19 1012.7
20260504022855 72 205 1.0 5.0 0.00 0.00 0.00 19 1012.6
20260504021355 73 187 3.0 7.0 0.00 0.00 0.00 19 1012.3
20260504020855 73 152 3.0 7.0 0.00 0.00 0.00 19 1012.3
20260504020354 74 165 3.0 7.0 0.00 0.00 0.00 19 1012.3
20260504015854 74 164 3.0 7.0 0.00 0.00 0.00 19 1012.3
20260504015354 74 167 3.0 7.0 0.00 0.00 0.00 19 1012.3
20260504014854 74 175 2.0 7.0 0.00 0.00 0.00 19 1012.4
20260504014355 74 178 2.0 7.0 0.00 0.00 0.00 19 1012.4
20260504013855 74 157 3.0 7.0 0.00 0.00 0.00 19 1012.4
20260504013355 74 188 2.0 6.0 0.00 0.00 0.00 19 1012.4
20260504012855 75 155 2.0 6.0 0.00 0.00 0.00 19 1012.4
20260504012355 75 186 2.0 6.0 0.00 0.00 0.00 20 1012.4
20260504011855 75 147 3.0 9.0 0.00 0.00 0.00 21 1012.3
20260504010854 76 117 4.0 10.0 0.00 0.00 0.00 20 1012.3
20260504010355 76 166 4.0 10.0 0.00 0.00 0.00 20 1012.4
20260504005855 76 177 4.0 10.0 0.00 0.00 0.00 20 1012.4
20260504005354 76 161 2.0 8.0 0.00 0.00 0.00 20 1012.4
20260504004854 77 178 2.0 7.0 0.00 0.00 0.00 22 1012.5
20260504004355 77 176 3.0 7.0 0.00 0.00 0.00 21 1012.5
20260504003855 77 105 3.0 7.0 0.00 0.00 0.00 21 1012.6
20260504003355 77 178 3.0 7.0 0.00 0.00 0.00 21 1012.5
20260504002853 78 137 3.0 6.0 0.00 0.00 0.00 22 1012.6
20260504001852 78 150 4.0 13.0 0.00 0.00 0.00 22 1012.5
20260504001353 78 138 3.0 9.0 0.00 0.00 0.00 21 1012.6
20260504000853 78 94 3.0 8.0 0.00 0.00 0.00 21 1012.6
20260504000354 78 164 3.0 8.0 0.00 0.00 0.00 21 1012.6
20260503235853 79 180 4.0 10.0 0.00 0.00 0.00 21 1012.5
20260503234850 78 136 4.0 14.0 0.00 0.00 0.00 21 1012.6
20260503234351 78 178 3.0 15.0 0.00 0.00 0.00 20 1012.6
20260503233350 79 145 6.0 14.0 0.00 0.00 0.00 20 1012.7
20260503232851 79 105 4.0 14.0 0.00 0.00 0.00 18 1012.5
20260503232351 79 134 5.0 13.0 0.00 0.00 0.00 19 1012.6
20260503231851 79 123 6.0 13.0 0.00 0.00 0.00 18 1012.9
20260503231351 80 98 6.0 13.0 0.00 0.00 0.00 19 1012.9
20260503230852 80 90 5.0 17.0 0.00 0.00 0.00 19 1012.9
20260503230351 81 141 5.0 17.0 0.00 0.00 0.00 18 1013.1
20260503225850 81 161 4.0 9.0 0.00 0.00 0.00 18 1013.1
20260503224851 81 146 4.0 9.0 0.00 0.00 0.00 18 1013.1
20260503223851 81 186 4.0 10.0 0.00 0.00 0.00 17 1013.3
20260503223351 81 140 5.0 14.0 0.00 0.00 0.00 18 1013.5
20260503222850 81 127 5.0 14.0 0.00 0.00 0.00 17 1013.5
20260503222351 82 137 3.0 9.0 0.00 0.00 0.00 18 1013.4
20260503221851 81 102 3.0 10.0 0.00 0.00 0.00 18 1013.5
20260503221351 80 130 4.0 11.0 0.00 0.00 0.00 18 1013.7
20260503220350 81 113 6.0 14.0 0.00 0.00 0.00 18 1014.0
20260503215851 81 141 5.0 13.0 0.00 0.00 0.00 18 1014.0
20260503215351 81 140 5.0 13.0 0.00 0.00 0.00 18 1014.0
20260503214350 82 135 4.0 10.0 0.00 0.00 0.00 17 1014.1
20260503213851 81 146 5.0 10.0 0.00 0.00 0.00 17 1014.2
20260503213350 82 151 5.0 12.0 0.00 0.00 0.00 17 1014.4
20260503212851 82 128 5.0 14.0 0.00 0.00 0.00 17 1014.3
20260503212351 83 100 4.0 14.0 0.00 0.00 0.00 17 1014.6
20260503211850 82 162 4.0 13.0 0.00 0.00 0.00 17 1014.4
20260503211351 82 88 5.0 13.0 0.00 0.00 0.00 18 1014.6
20260503210850 82 138 5.0 13.0 0.00 0.00 0.00 17 1014.8
20260503210351 82 142 5.0 11.0 0.00 0.00 0.00 16 1014.7
20260503205851 82 198 5.0 11.0 0.00 0.00 0.00 16 1014.9
20260503205351 82 114 4.0 11.0 0.00 0.00 0.00 16 1014.9
20260503204851 82 131 5.0 11.0 0.00 0.00 0.00 19 1014.8
20260503203850 81 158 5.0 17.0 0.00 0.00 0.00 18 1015.0
20260503202850 82 127 5.0 15.0 0.00 0.00 0.00 19 1015.2
20260503202350 82 97 3.0 15.0 0.00 0.00 0.00 18 1015.1
20260503201850 81 145 4.0 10.0 0.00 0.00 0.00 20 1015.2
20260503201350 81 146 5.0 10.0 0.00 0.00 0.00 20 1015.5
20260503200850 81 150 5.0 10.0 0.00 0.00 0.00 20 1015.4
20260503200346 80 134 5.0 10.0 0.00 0.00 0.00 21 1015.4
20260503195846 80 162 5.0 11.0 0.00 0.00 0.00 21 1015.6
20260503195346 81 156 5.0 11.0 0.00 0.00 0.00 22 1015.6
20260503194846 81 147 5.0 12.0 0.00 0.00 0.00 23 1015.6
20260503194346 81 169 6.0 12.0 0.00 0.00 0.00 23 1015.8
20260503193847 81 139 5.0 11.0 0.00 0.00 0.00 23 1015.7
20260503192842 81 126 5.0 16.0 0.00 0.00 0.00 23 1016.0
20260503192342 80 160 5.0 12.0 0.00 0.00 0.00 25 1016.0
20260503191843 80 137 4.0 12.0 0.00 0.00 0.00 24 1016.2
20260503191343 81 126 4.0 13.0 0.00 0.00 0.00 24 1016.4
20260503190842 80 14 4.0 13.0 0.00 0.00 0.00 25 1016.3
20260503190342 80 196 4.0 10.0 0.00 0.00 0.00 25 1016.4
20260503185842 80 159 4.0 9.0 0.00 0.00 0.00 25 1016.4
20260503185343 80 142 5.0 12.0 0.00 0.00 0.00 25 1016.6
20260503184843 80 139 5.0 16.0 0.00 0.00 0.00 25 1016.7
20260503184343 81 101 3.0 16.0 0.00 0.00 0.00 26 1016.5
20260503183842 81 80 3.0 9.0 0.00 0.00 0.00 26 1016.6
20260503183343 80 94 3.0 7.0 0.00 0.00 0.00 26 1016.7
20260503182841 80 97 2.0 7.0 0.00 0.00 0.00 27 1016.7
20260503182334 80 99 2.0 8.0 0.00 0.00 0.00 27 1016.7
20260503181832 80 104 3.0 8.0 0.00 0.00 0.00 28 1016.9
20260503181333 80 48 3.0 8.0 0.00 0.00 0.00 27 1016.9
20260503180832 80 106 3.0 8.0 0.00 0.00 0.00 27 1017.1
20260503180333 79 81 3.0 8.0 0.00 0.00 0.00 28 1017.1
20260503175835 79 95 2.0 7.0 0.00 0.00 0.00 28 1017.3
20260503175330 79 69 2.0 5.0 0.00 0.00 0.00 28 1017.3
20260503174829 78 86 2.0 5.0 0.00 0.00 0.00 28 1017.4
20260503174328 79 92 2.0 6.0 0.00 0.00 0.00 28 1017.6
20260503173828 78 109 2.0 6.0 0.00 0.00 0.00 29 1017.6
20260503173328 78 111 2.0 5.0 0.00 0.00 0.00 28 1017.7
20260503172826 78 128 2.0 5.0 0.00 0.00 0.00 29 1017.9
20260503171825 77 121 2.0 6.0 0.00 0.00 0.00 29 1018.1
20260503171325 76 150 2.0 5.0 0.00 0.00 0.00 30 1018.0
20260503170824 76 49 1.0 5.0 0.00 0.00 0.00 29 1018.1
20260503170323 76 90 2.0 5.0 0.00 0.00 0.00 30 1018.3
20260503150801 69 110 0.0 0.0 0.00 0.00 0.00 33 1018.8
20260503150259 68 110 0.0 1.0 0.00 0.00 0.00 33 1018.8
20260503140256 62 245 0.0 0.0 0.00 0.00 0.00 39 1018.6
20260503131252 60 245 0.0 0.0 0.00 0.00 0.00 37 1018.2
20260503130252 60 245 0.0 0.0 0.00 0.00 0.00 36 1018.1
20260503110719 60 260 0.0 0.0 0.00 0.00 0.00 33 1018.0
20260503110217 60 260 0.0 0.0 0.00 0.00 0.00 33 1017.9
20260503100204 61 265 0.0 0.0 0.00 0.00 0.00 32 1017.9
20260503090151 63 263 0.0 2.0 0.00 0.00 0.00 29 1017.9
20260503081144 62 262 1.0 3.0 0.00 0.00 0.00 29 1018.1
20260503080644 63 263 1.0 3.0 0.00 0.00 0.00 29 1018.2
20260503080143 63 269 1.0 3.0 0.00 0.00 0.00 29 1018.3
20260503072636 64 252 0.0 2.0 0.00 0.00 0.00 28 1018.3
20260503072136 64 252 0.0 2.0 0.00 0.00 0.00 27 1018.3
20260503071638 65 261 0.0 2.0 0.00 0.00 0.00 27 1018.4
20260503071134 65 311 0.0 2.0 0.00 0.00 0.00 27 1018.4
20260503070632 65 325 0.0 2.0 0.00 0.00 0.00 27 1018.3
20260503070132 65 283 0.0 0.0 0.00 0.00 0.00 27 1018.4
20260503060125 70 248 2.0 5.0 0.00 0.00 0.00 23 1018.1
20260503055126 70 202 3.0 6.0 0.00 0.00 0.00 23 1017.9
20260503054625 71 200 3.0 7.0 0.00 0.00 0.00 23 1017.9
20260503054125 71 198 3.0 7.0 0.00 0.00 0.00 23 1017.9
20260503053125 71 176 4.0 10.0 0.00 0.00 0.00 22 1018.1
20260503052625 71 248 4.0 10.0 0.00 0.00 0.00 22 1018.0
20260503052125 71 200 4.0 10.0 0.00 0.00 0.00 22 1017.9
20260503051624 71 195 4.0 10.0 0.00 0.00 0.00 22 1017.9
20260503050623 71 200 4.0 8.0 0.00 0.00 0.00 22 1017.9
20260503050119 71 198 4.0 10.0 0.00 0.00 0.00 22 1017.7
20260503045616 71 204 4.0 10.0 0.00 0.00 0.00 22 1017.7
20260503045120 71 196 4.0 8.0 0.00 0.00 0.00 22 1017.7
20260503035605 71 244 5.0 12.0 0.00 0.00 0.00 22 1017.2
20260503035103 71 236 4.0 9.0 0.00 0.00 0.00 22 1016.9
20260503034102 72 176 4.0 10.0 0.00 0.00 0.00 22 1016.8
20260503033059 72 186 3.0 9.0 0.00 0.00 0.00 22 1016.8
20260503032557 72 192 4.0 10.0 0.00 0.00 0.00 22 1016.7
20260503032057 72 185 4.0 10.0 0.00 0.00 0.00 21 1016.6
20260503031056 72 212 3.0 6.0 0.00 0.00 0.00 21 1016.5
20260503030556 72 211 4.0 6.0 0.00 0.00 0.00 21 1016.4
20260503025055 72 196 3.0 5.0 0.00 0.00 0.00 21 1016.4